Weather History for KPWK - October, 2013

Change the Weather History Date:

Wednesday, October 23, 2013

  Actual Average Record
Temperature  
Mean Temperature 40 °F 50 °F  
Max Temperature 48 °F 59 °F 76 °F (2004)
Min Temperature 31 °F 41 °F 31 °F (2013)
Degree Days  
Heating Degree Days 25 15  
Month to date heating degree days 224 273  
Since 1 July heating degree days 314 385  
Cooling Degree Days 0 0  
Month to date cooling degree days 22 11  
Year to date cooling degree days 918 789  
Moisture  
Dew Point 27 °F    
Average Humidity 64    
Maximum Humidity 85    
Minimum Humidity 42    
Precipitation  
Precipitation 0.00 in 0.10 in 0.91 in (2009)
Month to date precipitation 2.00 2.25  
Year to date precipitation 24.90 27.94  
Sea Level Pressure  
Sea Level Pressure 29.99 in    
Wind  
Wind Speed 8 mph (WNW)    
Max Wind Speed 16 mph    
Max Gust Speed 22 mph    
Visibility 10 miles    
Events      
T = Trace of Precipitation, MM = Missing Value Source: NWS Daily Summary

Daily Weather History Graph

Daily Weather History Graph

Search for Another Location

Airport or City:

Trip Planner

Search our weather history database for the weather conditions in past years. The results will help you decide how hot, cold, wet, or windy it might be!

Date:

Astronomy

Oct. 23, 2013 Rise Set
Actual Time 7:13 AM CDT 5:57 PM CDT
Civil Twilight 6:45 AM CDT 6:25 PM CDT
Nautical Twilight 6:12 AM CDT 6:58 PM CDT
Astronomical Twilight 5:40 AM CDT 7:30 PM CDT
Moon 9:25 PM CDT (10/23) 11:33 AM CDT (10/23)
Length of Visible Light 11h 40m
Length of Day
10h 43m
Waning Gibbous, 79% of the Moon is Illuminated
Oct 23
Waning Gibbous
Oct 26
Last Quarter
Nov 3
New
Nov 9
First Quarter
Nov 17
Full

Hourly Weather History & Observations

Time (CDT) Temp. Windchill Dew Point Humidity Pressure Visibility Wind Dir Wind Speed Gust Speed Precip Events Conditions
12:52 AM 34.0 °F 29.8 °F 30.0 °F 85% 29.94 in 8.0 mi NW 4.6 mph - N/A   Clear
1:52 AM 33.1 °F 28.7 °F 28.9 °F 85% 29.94 in 10.0 mi NNW 4.6 mph - N/A   Clear
2:52 AM 33.1 °F 26.1 °F 28.0 °F 82% 29.94 in 10.0 mi NNW 8.1 mph - N/A   Clear
3:52 AM 33.1 °F 26.9 °F 28.0 °F 82% 29.94 in 10.0 mi NNW 6.9 mph - N/A   Clear
4:52 AM 32.0 °F 25.6 °F 27.0 °F 82% 29.95 in 10.0 mi NNW 6.9 mph - N/A   Clear
5:52 AM 32.0 °F 26.4 °F 27.0 °F 82% 29.96 in 10.0 mi NW 5.8 mph - N/A   Clear
6:52 AM 32.0 °F 25.6 °F 27.0 °F 82% 29.97 in 10.0 mi NW 6.9 mph - N/A   Clear
7:52 AM 32.0 °F 26.4 °F 27.0 °F 82% 29.99 in 5.0 mi WNW 5.8 mph - N/A   Haze
8:52 AM 36.0 °F 30.3 °F 28.0 °F 73% 30.01 in 10.0 mi NW 6.9 mph - N/A   Clear
9:52 AM 39.9 °F 32.5 °F 27.0 °F 60% 30.01 in 10.0 mi NW 12.7 mph - N/A   Clear
10:52 AM 43.0 °F 37.2 °F 26.1 °F 51% 30.01 in 10.0 mi NW 10.4 mph 19.6 mph N/A   Clear
11:52 AM 44.1 °F 37.4 °F 26.1 °F 49% 30.01 in 10.0 mi NW 13.8 mph 19.6 mph N/A   Clear
12:52 PM 44.1 °F 37.1 °F 25.0 °F 47% 29.99 in 10.0 mi WNW 15.0 mph 21.9 mph N/A   Clear
1:52 PM 45.0 °F 38.9 °F 24.1 °F 44% 29.99 in 10.0 mi NW 12.7 mph - N/A   Mostly Cloudy
2:52 PM 44.1 °F 39.0 °F 21.9 °F 42% 29.99 in 10.0 mi WNW 9.2 mph 20.7 mph N/A   Overcast
3:52 PM 44.1 °F 39.0 °F 23.0 °F 43% 30.00 in 10.0 mi West 9.2 mph 18.4 mph N/A   Overcast
4:52 PM 44.1 °F 39.5 °F 25.0 °F 47% 30.00 in 10.0 mi West 8.1 mph - N/A   Overcast
5:52 PM 42.1 °F 37.1 °F 26.1 °F 53% 30.01 in 10.0 mi West 8.1 mph - N/A   Overcast
6:52 PM 41.0 °F 34.7 °F 28.0 °F 60% 30.03 in 10.0 mi West 10.4 mph 19.6 mph N/A   Overcast
7:52 PM 39.9 °F 33.9 °F 27.0 °F 60% 30.04 in 10.0 mi West 9.2 mph - N/A   Overcast
8:52 PM 39.9 °F 35.8 °F 28.0 °F 63% 30.04 in 10.0 mi WNW 5.8 mph - N/A   Overcast
9:52 PM 39.0 °F 35.7 °F 28.0 °F 65% 30.04 in 10.0 mi WSW 4.6 mph - N/A   Overcast
10:52 PM 39.0 °F 35.7 °F 28.0 °F 65% 30.04 in 10.0 mi West 4.6 mph - N/A   Overcast
11:52 PM 39.0 °F 34.8 °F 26.1 °F 60% 30.04 in 10.0 mi West 5.8 mph - N/A   Overcast